This demonstration page uses our WeatherBlox Daily Observations layout. Learn more.

Left ArrowRight Arrow

Hourly Observations for April 6, 2022

Temp ( °F °C ) Dew Point ( °F °C ) Humidity (%) Winds ( mph kmh ) Pressure ( in mb ) Visibility ( mi km ) Precip ( " mm )
12:56 am 00:56 Mostly Cloudy 44 6.8 27 -2.9 50 50 WNW 5 7 29.67 1005 10 16 0.00 0.00
1:56 am 01:56 Partly Cloudy 42 5.8 26 -3.6 51 51 W 7 11 29.67 1005 10 16 0.00 0.00
2:56 am 02:56 Mostly Clear 42 5.4 24 -4.2 50 50 WSW 9 15 29.65 1004 10 16 0.00 0.00
3:56 am 03:56 Clear 42 5.7 24 -4.5 48 48 WSW 13 20 29.63 1003 10 16 0.00 0.00
4:56 am 04:56 Clear 43 6 23 -5 46 46 W 14 22 29.61 1003 10 16 0.00 0.00
5:56 am 05:56 Clear 42 5.8 23 -4.9 46 46 WSW 15 24 29.59 1002 10 16 0.00 0.00
6:56 am 06:56 undefined 42 5.8 22 -5.5 44 44 WSW 18 30 29.60 1002 10 16 0.00 0.00
7:56 am 07:56 Partly Cloudy 44 6.6 22 -5.7 41 41 W 14 22 29.62 1003 10 16 0.00 0.00
8:56 am 08:56 Cloudy 47 8.6 26 -3.3 43 43 WNW 16 26 29.64 1004 10 16 0.00 0.00
9:56 am 09:56 Cloudy 51 10.4 27 -3 39 39 NW 24 39 29.64 1004 9 14 0.00 0.00
10:56 am 10:56 Cloudy 51 10.4 27 -2.6 40 40 WNW 23 37 29.66 1005 8 13 0.00 0.00
11:56 am 11:56 Cloudy 50 10.1 29 -1.6 44 44 NW 23 37 29.68 1005 9 14 0.00 0.00
12:22 pm 12:22 Cloudy with Light Rain 50 10 28 -2 43 43 WNW 22 35 29.68 1005 10 16 0.00 0.00
12:56 pm 12:56 Mostly Cloudy 51 10.5 29 -1.6 43 43 WNW 32 52 29.69 1005 9 14 0.00 0.00
1:56 pm 13:56 Cloudy 52 10.9 28 -2.5 39 39 NW 28 44 29.74 1007 10 16 0.00 0.00
2:56 pm 14:56 Cloudy 48 9 27 -2.9 43 43 WNW 26 43 29.77 1008 10 16 0.00 0.00
3:56 pm 15:56 Windy with Rain Showers Likely 45 7.4 32 -0.1 59 59 NW 20 31 29.82 1010 10 16 0.00 0.00
4:56 pm 16:56 Cloudy with Light Rain 42 5.6 30 -1.1 62 62 NW 21 33 29.86 1011 10 16 0.00 0.00
5:56 pm 17:56 Cloudy 45 7.4 28 -2.1 51 51 WNW 15 24 29.87 1012 10 16 0.00 0.00
6:56 pm 18:56 Cloudy 46 7.9 28 -2.2 49 49 WNW 9 15 29.86 1011 10 16 0.00 0.00
7:56 pm 19:56 Partly Cloudy 48 8.8 23 -5.1 37 37 NW 17 28 29.87 1012 10 16 0.00 0.00
8:56 pm 20:56 Mostly Cloudy 48 9 22 -5.3 36 36 NW 15 24 29.88 1012 10 16 0.00 0.00
9:56 pm 21:56 Partly Cloudy 47 8.4 23 -5.1 38 38 WNW 15 24 29.89 1012 10 16 0.00 0.00
10:56 pm 22:56 Mostly Clear 45 7 24 -4.4 44 44 WNW 12 19 29.89 1012 10 16 0.00 0.00
11:56 pm 23:56 Mostly Clear 43 6.3 23 -4.8 45 45 WNW 10 17 29.88 1012 10 16 0.00 0.00

Powered by AerisWeather